390  
ASUS46 KSGX 021611  
RWRSGX  
 
SAN DIEGO HOURLY WEATHER ROUNDUP  
NATIONAL WEATHER SERVICE SAN DIEGO CA  
900 AM PDT THU JUL 02 2020  
 
NOTE: "FAIR" INDICATES FEW OR NO CLOUDS BELOW 12,000 FEET WITH NO  
SIGNIFICANT WEATHER AND/OR S TO VISIBILITY
.  
 
CAZ042-043-060-061-PZZ750-775-021700-  
 
GREATER SAN DIEGO AREA  
 
CITY SKY/WX TMP DP RH WIND PRES REMARKS
 
SAN DIEGO AP CLOUDY 66 56 70 VRB3 29.96R  
CHULA VISTA N/A 66 60 81 W5 29.86R  
BROWN FIELD CLOUDY 65 57 75 CALM 29.95R  
MIRAMAR MCAS CLOUDY 67 59 75 CALM 29.95R  
MONTGOMERY FLD CLOUDY 66 57 72 CALM 29.95R  
GILLESPIE FLD CLOUDY 66 57 72 CALM 29.96R  
LEMON GROVE N/A 64 60 87 CALM 29.93R  
 

 
 
NORTH SAN DIEGO COUNTY  
 
CITY SKY/WX TMP DP RH WIND PRES REMARKS
 
CAMP PENDLETON CLOUDY 65 58 78 CALM 29.95S  
OCEANSIDE AP CLOUDY 67 62 84 CALM 29.94R HAZE  
OCEANSIDE HBR N/A 65 60 83 CALM 30.02R  
VISTA N/A 62 56 81 CALM 29.93R  
CARLSBAD CLOUDY 65 57 75 CALM 29.94S  
ENCINITAS N/A 65 60 82 CALM N/A  
LA JOLLA SCRIP N/A 64 58 79 CALM 29.95R  
FALLBROOK CLOUDY 63 61 94 CALM 29.96S FOG  
ESCONDIDO N/A 64 60 85 CALM 29.94R  
RANCHO BERNARD N/A 64 59 82 N1 29.94R  
POWAY N/A 66 59 78 W1 29.95S  
 

 
 
EAST SAN DIEGO COUNTY  
 
CITY SKY/WX TMP DP RH WIND PRES REMARKS
 
RAMONA PTSUNNY 63 57 81 W3 29.96R  
LA MESA N/A 64 58 82 CALM 29.89S  
JAMUL N/A 66 59 78 CALM 29.93R  
DESCANSO N N/A 76 46 33 S1 29.92S  
CAMPO N/A 74 43 32 CALM 29.94R  
 

 
 
ORANGE COUNTY AND THE LOS ANGELES BASIN  
 
CITY SKY/WX TMP DP RH WIND PRES REMARKS
 
JOHN WAYNE AP CLOUDY 67 57 70 E6 29.95R  
LAGUNA BEACH N/A 66 61 84 N1 29.94R  
LAKE FOREST FR N/A 62 56 81 CALM 29.85R  
HUNTINGTON BCH N/A 67 60 78 SE2 29.95R  
LOS ALAMITOS CLOUDY 68 55 64 SE3 29.95R  
FULLERTON CLOUDY 69 57 65 CALM 29.94R  
LONG BEACH CLOUDY 67 55 65 SE5 29.95R  
L.A. AP CLOUDY 68 55 63 VRB5 29.94S  
L.A. DOWNTOWN CLOUDY 67 56 67 CALM 29.94R  
 

 
 
THE INLAND EMPIRE  
 
CITY SKY/WX TMP DP RH WIND PRES REMARKS
 
CORONA CLOUDY 65 59 81 N3 29.96R  
UPLAND AP CLOUDY 63 57 82 CALM 29.96R HAZE  
CHINO CLOUDY 67 57 70 CALM 29.96S HAZE  
ONTARIO CLOUDY 66 57 72 CALM 29.95R  
RIVERSIDE AP CLOUDY 64 56 75 CALM 29.96R HAZE  
MORENO VALLEY N/A 61 60 97 CALM 29.90R  
MARCH ARB CLOUDY 64 57 80 SE6 29.96S  
HORSETHIEF CYN N/A 62 55 78 CALM 29.93R  
LAKE ELSINORE N/A 63 58 82 CALM 29.87R  
HEMET AP CLOUDY 61 58 90 E3 29.97R  
FRENCH VALLEY CLOUDY 61 57 88 CALM 29.97R  
TEMECULA N/A 64 60 89 CALM 29.95R  
 

 
 
SAN BERNARDINO AND RIVERSIDE COUNTY MOUNTAINS  
 
CITY SKY/WX TMP DP RH WIND PRES REMARKS
 
BIG BEAR AP SUNNY 64 30 27 W5 30.17R  
BIG BEAR LAKE N/A 68 38 33 CALM 29.84R  
LK ARROWHEAD N N/A 68 40 35 CALM 29.78R  
WRIGHTWOOD N/A 68 29 23 N1 29.78R  
ANGELUS OAKS N/A 61 41 48 CALM 29.78R  
IDYLLWILD N/A 63 38 39 SE3 29.78R  
GARNER VALLEY N/A 67 42 39 CALM 29.82R  
 

 
 
SOUTHERN DESERT INCLUDING THE COACHELLA VALLEY  
 
CITY SKY/WX TMP DP RH WIND PRES REMARKS
 
PALM SPRINGS SUNNY 84 72 67 CALM 29.84R  
THOUSAND PALMS N/A 84 54 35 W6 29.78R  
PALM DESERT N/A 83 57 41 CALM N/A  
INDIO N/A 83 56 38 W6 29.80S  
THERMAL SUNNY 85 53 33 NW7 29.79R  
BORREGO AP FAIR 88 37 16 CALM 29.82S  
OCOTILLO WELLS N/A 90 48 23 SE2 29.75R  
CANEBRAKE N/A 87 26 11 S2 29.76R  
BLYTHE SUNNY 88 49 25 S6 29.84R  
IMPERIAL AP SUNNY 86 51 29 NE6 29.80R  
EL CENTRO NAS SUNNY 88 49 25 NE8 29.82R  
YUMA AZ SUNNY 90 55 30 S9 29.82R  
 

 
 
UPPER DESERT  
 
CITY SKY/WX TMP DP RH WIND PRES REMARKS
 
VICTORVILLE AP SUNNY N/A N/A N/A NW5 29.95R  
HESPERIA N/A 77 37 23 W8 29.83  
APPLE VALLEY N/A 78 48 34 CALM 29.85R  
PALMDALE SUNNY 76 41 28 N3 29.94R  
LANCASTER SUNNY 78 37 22 W14 29.93R  
EDWARDS AFB SUNNY 74 43 32 S8 29.91R  
GRAY BUTTE AP FAIR 74 40 29 CALM 29.93R  
DAGGETT SUNNY 78 42 27 NW13 29.91R  
29 PALMS N SUNNY 84 32 15 CALM 29.96R  
NEEDLES SUNNY 93 29 10 E7 29.86R  
 

 
 
REGIONAL REPORTS  
 
CITY SKY/WX TMP DP RH WIND PRES REMARKS
 
SANTA BARBARA CLOUDY 62 58 86 CALM 29.94R FOG  
SANDBERG SUNNY 65 39 38 S13 30.03R  
LAS VEGAS NV SUNNY 87 35 15 S7 29.91R  
PHOENIX AZ MOSUNNY 90 42 18 SE3 29.91R  
TIJUANA CLOUDY 64 59 82 CALM 29.98R  
ENSENADA NW N/A 67 32 26 W6 29.90R  
 

 
 
OFFSHORE ISLANDS  
 
CITY SKY/WX TMP DP RH WIND PRES REMARKS
 
CATALINA ARPT CLOUDY 60 53 77 CALM 29.97R  
SAN CLEMENTE I PTSUNNY 64 54 69 CALM 29.97R  
SAN NICOLAS IS PTSUNNY 61 51 70 S6 29.95R  
 

 
 
MARINE AND OFFSHORE BUOY REPORTS  
 
STATION/POSITION SKY/WX TEMP WIND PRES VSBY SWELL
 
AIR SEA DIR/SP/G HT/PER/DIR  
(F) (DEG/KT/KT) (MB) (MI) (FT/S/D)  
TANNER BANKS 60 340/ 4/ 6 1014.3R 7/310/10  
S CLEMENTE BASIN 62 1014.2R 5/280/10  
SAN NICOLAS IS. 63 N/A 3/320/11  
SO. S. ROSA ISLA 65 1014.5R 7/320/11  
W. S. BARBARA CH 57 59 CALM / 2 1014.3R 5/320/11  
M. S. BARBARA CH 60 62 280/ 2/ 4 1014.5R 2/280/ 7  
S. MONICA BASIN 63 67 220/ 6/ 8 1013.8R 3/170/15  
S PEDRO CHANNEL 68 N/A 2/230/17  
OCEANSIDE OFFSHR 69 N/A 3/200/17  
TORREY PINES OTR 67 N/A 3/200/15  
SAN DIEGO BAY 69 1013.9R  
POINT LOMA SOUTH 67 N/A 3/200/14  
 

 
 
 
 
CLICK HERE TO GO TO PREVIOUS BULLETINS.

The Nexlab CA Page Main Text Page